{"data":{"norad_id":63434,"epoch":"2026-05-25T03:23:36.273120Z","epoch_age_seconds":59532,"freshness":"FRESH","line1":"1 63434U 25069B   26145.14139205  .00020067  00000+0  46921-3 0  9994","line2":"2 63434  53.1580 144.9670 0001366  13.8209 346.2834 15.42169765 65146","mean_motion":15.42169765,"eccentricity":0.0001366,"inclination_deg":53.158,"raan_deg":144.967,"arg_perigee_deg":13.8209,"mean_anomaly_deg":346.2834,"bstar":0.00046921,"rev_number":6514,"period_min":93.374933984651,"perigee_km":438.77555573625,"apogee_km":440.63819068241,"semimajor_km":6817.8438732093,"source":"CELESTRAK","updated_at":"2026-05-25T13:38:19.996981Z"}}